Tracking 28052 objects as of 24-Sep-2023
HD Live streaming from Space Station
objects crossing your sky now

COSMOS 886 DEB

Track COSMOS 886 DEB now!
10-day predictions


NORAD ID: 9823
Int'l Code: 1976-126AK
Perigee: 582.8 km
Apogee: 1,986.5 km
Inclination: 65.8 °
Period: 111.1 minutes
Semi major axis: 7655 km
RCS: 0.0286 m2 (small)
Launch date: December 27, 1976
Source: Commonwealth of Independent States (former USSR) (CIS)
Launch site: TYURATAM MISSILE AND SPACE COMPLEX (TTMTR)

Note: This is SATELLITE DEBRIS
Your satellite tracking list
Your tracking list is empty




NASA's NSSDC Master Catalog

Two Line Element Set (TLE):
1 09823U 76126AK  23266.20758151  .00002547  00000-0  12194-2 0  9999
2 09823  65.8011 184.3996 0916754  90.8450 279.7578 12.96072873185490
Source of the keplerian elements: AFSPC